Hourly Data Report for October 02, 2017

All times are specified in Local Standard Time (LST). Add 1 hour to adjust for Daylight Saving Time where and when it is observed.

PEMBERTON AIRPORT CS
BRITISH COLUMBIA

50°18'20.326" N
122°44'02.720" W
204.30 m
1086082
71777
WGP

Download Data

Hourly Data (October 2017)
Hourly Data Report for October 2, 2017
Temp Definition
°C
Dew Point Temp Definition
°C
Rel Hum Definition
%
Wind Dir Definition
10's deg

Wind Spd Definition
km/h
Visibility Definition
km
Stn Press Definition
kPa
Hmdx Definition


Wind Chill Definition


Weather Definition


TIME
00:00 7.7 6.6 93 LegendMM LegendMM   99.70     LegendNANA
01:00 8.0 6.6 91 LegendMM LegendMM   99.71     LegendNANA
02:00 7.9 6.3 90 LegendMM LegendMM   99.72     LegendNANA
03:00 7.8 5.9 88 LegendMM LegendMM   99.75     LegendNANA
04:00 7.5 6.0 90 LegendMM LegendMM   99.78     LegendNANA
05:00 8.2 6.0 86 LegendMM LegendMM   99.82     LegendNANA
06:00 7.3 5.7 90 LegendMM LegendMM   99.83     LegendNANA
07:00 8.3 5.2 81 LegendMM LegendMM   99.88     LegendNANA
08:00 12.7 0.3 42 LegendMM LegendMM   99.92     LegendNANA
09:00 13.6 -0.5 38 LegendMM LegendMM   99.98     LegendNANA
10:00 14.3 -1.4 34 LegendMM LegendMM   99.99     LegendNANA
11:00 15.6 -1.1 32 LegendMM LegendMM   100.02     LegendNANA
12:00 15.7 -1.8 30 LegendMM LegendMM   100.03     LegendNANA
13:00 17.3 -1.1 28 LegendMM LegendMM   100.02     LegendNANA
14:00 17.7 -1.2 28 LegendMM LegendMM   100.01     LegendNANA
15:00 17.5 -0.8 29 LegendMM LegendMM   100.00     LegendNANA
16:00 17.2 -0.7 30 LegendMM LegendMM   100.02     LegendNANA
17:00 15.7 -2.2 29 LegendMM LegendMM   100.05     LegendNANA
18:00 13.2 1.4 44 LegendMM LegendMM   100.10     LegendNANA
19:00 13.9 -2.1 33 LegendMM LegendMM   100.19     LegendNANA
20:00 10.9 1.9 54 LegendMM LegendMM   100.28     LegendNANA
21:00 10.5 0.5 50 LegendMM LegendMM   100.31     LegendNANA
22:00 10.4 1.6 55 LegendMM LegendMM   100.34     LegendNANA
23:00 6.6 2.4 75 LegendMM LegendMM   100.33     LegendNANA

Notes on Data Quality.

Legend

  • E = Estimated
  • M = Missing
  • NA = Not Available
  • ‡ = Partner data that is not subject to review by the National Climate Archives
Date modified: